Location: Boiro
(42.6475°N, 8.8834°W)
Time: 14:35:50
(UTC+02:00)

Explorer 7 - Pass Details

Date: 01 July 2022
Orbit: 482 x 668 km, 50.3° (Epoch: 15 August)

Event Time Altitude Azimuth Distance (km) Brightness Sun altitude
Rises 06:21:28 0° 300° (WNW) 2,938 10.3 -6.7°
Reaches altitude 10° 06:23:52 10° 302° (WNW) 2,001 9.5 -6.4°
Maximum altitude 06:28:28 80° 29° (NNE) 613 7.2 -5.7°
Drops below altitude 10° 06:32:46 10° 117° (ESE) 1,875 9.9 -5.1°
Sets 06:34:57 0° 119° (ESE) 2,737 10.7 -4.8°
